Regional Weather Roundup
Issued by NWS Green Bay, WI

Home | Current Version | Previous Version | Graphics & Text | Print | Product List | Glossary Off
Versions: 1 2 3 4 5 6 7 8 9 10 11 12 13 14 15 16 17 18 19 20 21 22 23 24 25 26 27 28 29 30 31 32 33 34 35 36 37 38 39 40 41 42 43 44 45 46 47 48 49 50

000
ASUS43 KGRB 040200
RWRGRB

NORTH-CENTRAL AND NORTHEAST WISCONSIN REGIONAL WEATHER ROUNDUP
NATIONAL WEATHER SERVICE GREEN BAY WI
900 PM CDT TUE MAY 03 2016

WIZ005-009-010>012-018-019-040300-
NORTH CENTRAL WISCONSIN

CITY           SKY/WX    TMP DP  RH WIND       PRES   REMARKS
IRONWOOD         N/A     52  36  54 N9        29.73R
MANITOWISH WTR NOT AVBL
ARBOR VITAE    NOT AVBL
EAGLE RIVER    NOT AVBL
LAND O LAKES   NOT AVBL
RHINELANDER    CLEAR     42  39  89 CALM      29.72R
PHILLIPS       NOT AVBL
ANTIGO         NOT AVBL
TOMAHAWK       NOT AVBL
MERRILL        NOT AVBL
$$

WIZ013-073-040300-
NORTHEAST WISCONSIN

CITY           SKY/WX    TMP DP  RH WIND       PRES   REMARKS
IRON MOUNTAIN  CLOUDY    44  43  96 CALM      29.68S
MARINETTE      CLOUDY    52  46  82 NW6       29.70S
$$

WIZ017-030-035>037-045-040300-
CENTRAL WISCONSIN

CITY           SKY/WX    TMP DP  RH WIND       PRES   REMARKS
MEDFORD        NOT AVBL
WAUSAU         CLOUDY    48  45  89 CALM      29.69S
MOSINEE        PTCLDY    45  45 100 NE6       29.72R
MARSHFIELD     CLOUDY    49  46  90 NE6       29.70R
WISC RAPIDS    MOCLDY    50  47  89 CALM      29.71R
STEVENS POINT  NOT AVBL
WAUPACA        NOT AVBL
SHAWANO        NOT AVBL
CLINTONVILLE   NOT AVBL
WAUTOMA        HVY RAIN  50  47  89 N10G20    29.72R
$$

WIZ038-039-048-051-040300-
FOX VALLEY

CITY           SKY/WX    TMP DP  RH WIND       PRES   REMARKS
NWS GREEN BAY  RAIN      52  48  86 NW8       29.71R
APPLETON       RAIN      52  46  82 N12       29.71R
OSHKOSH        RAIN      54  46  74 N25       29.70R
FOND DU LAC    CLOUDY    55  47  74 S7        29.65F
$$

WIZ022-050-052-040300-
EAST CENTRAL WISCONSIN

CITY           SKY/WX    TMP DP  RH WIND       PRES   REMARKS
EPHRAIM        NOT AVBL
STURGEON BAY   CLOUDY    50  45  81 E5        29.71R
MANITOWOC      NOT AVBL
SHEBOYGAN      LGT RAIN  53  46  77 SW5       29.68F
$$

LMZ563-521-522-541>543-040300-
LAKESHORE

STATION/POSITION TIME  TEMP    WIND        PRES    VSBY  WAVE
                       AIR SEA DIR/SP/G                  HT/PER
                 (UTC) (F)     (DEG/KT/KT) (MB)    (MI)  (FT/S)
SHEBOYGAN LKSHOR 0100   60     310/ 13/ 15 1005.8R
KEWAUNEE LKSHORE 0100   48                 1005.5R
ALGOMA MARINA    0115           80/  9/  9   N/A
NORTHPORT PIER   0100   49     170/  2/ 19 1005.1F
N MID LAKE BUOY  0050   42 39  160/  8/  8 1005.6F         2/ 5
CHAMBERS ISLAND  0100   48      CALM  /  4 1005.1
MENOMINEE LKSHOR 0100   50                 1004.0F
$$



USA.gov is the U.S. government's official web portal to all federal, state and local government web resources and services.